User: anonymous   Login
Location: Unspecified
(0.0000°N, 0.0000°E)
Time: 17:52:42
(UTC+01:00)
Language:

Cosmos 1437 - Orbit

View from above orbital plane
View from above orbital plane
View from above satellite
View from above satellite

Ground track
Ground track

The orbit data is extracted from the following two-line orbital elements,

1 13770U 83003A   17056.43101666  .00008841  00000-0  15655-3 0  9994
2 13770  81.1573 285.6080 0006075 300.8506  59.2142 15.50103982869206
Epoch (UTC): 25 February 2017 10:20:39
Eccentricity: 0.0006075
inclination: 81.1573°
perigee height: 412 km
apogee height: 420 km
right ascension of ascending node: 285.6080°
argument of perigee: 300.8506°
revolutions per day: 15.50103982
mean anomaly at epoch: 59.2142°
orbit number at epoch: 86920

The dashed part of the orbit path shows where the satellite is in the earth's shadow,  

DLR